カタログに戻る

COSMOS 970 DEB

運用中LEO
NORAD 14907·DEBRIS·🇷🇺 Russia

打ち上げ Dec 21, 1977 から Baikonur Cosmodrome

Loading…

次のパス (今後24時間)

TLE

最新Source: Space-Track

元期: Sep 14, 2026, 01:47 UTC

1 14907U 77121BL  26257.07468427 -.00000053  00000-0  31466-4 0  9992
2 14907  66.0273 137.2958 0065592  25.6046 123.2920 13.55196795213402

AllMySatでCOSMOS 970 DEBをリアルタイム追跡

Download on the App Store